This is the latest recevied weather packets stored in our database for station/object WA9NNN-10. If no packets are shown the sender has not sent any weather packets the latest 10 day(s).
| Time | Temp. | Humidity | Pressure | Rain* | Wind** | Luminosity | Snow |
|---|---|---|---|---|---|---|---|
| 1777399297 | 17.78° C | 61% | 1013.9 hPa | 0 mm | - | - | - |
| 1777398997 | 17.22° C | 60% | 1014 hPa | 0 mm | - | - | - |
| 1777398697 | 17.22° C | 60% | 1013.9 hPa | 0 mm | - | - | - |
| 1777398396 | 17.22° C | 60% | 1013.6 hPa | 0 mm | - | - | - |
| 1777398097 | 17.22° C | 61% | 1013.6 hPa | 0 mm | - | - | - |
| 1777397797 | 17.22° C | 60% | 1013.5 hPa | 0 mm | - | - | - |
| 1777397498 | 17.78° C | 59% | 1013.7 hPa | 0 mm | - | - | - |
| 1777397197 | 17.22° C | 60% | 1013.7 hPa | 0 mm | - | - | - |
| 1777396897 | 17.22° C | 61% | 1013.6 hPa | 0 mm | - | - | - |
| 1777396597 | 16.67° C | 62% | 1013.7 hPa | 0 mm | - | - | - |
| 1777396298 | 16.67° C | 63% | 1013.8 hPa | 0 mm | - | - | - |
| 1777395996 | 16.11° C | 63% | 1013.6 hPa | 0 mm | - | - | - |
| 1777395697 | 16.11° C | 63% | 1013.6 hPa | 0 mm | - | - | - |
| 1777395397 | 16.11° C | 63% | 1013.5 hPa | 0 mm | - | - | - |
| 1777395097 | 16.11° C | 64% | 1013.5 hPa | 0 mm | - | - | - |
| 1777394796 | 15.56° C | 65% | 1013.4 hPa | 0 mm | - | - | - |
| 1777394497 | 15° C | 66% | 1013.4 hPa | 0 mm | - | - | - |
| 1777394196 | 15° C | 67% | 1013.5 hPa | 0 mm | - | - | - |
| 1777393897 | 14.44° C | 68% | 1013.6 hPa | 0 mm | - | - | - |
| 1777393596 | 13.89° C | 69% | 1013.7 hPa | 0 mm | - | - | - |
| 1777393297 | 13.89° C | 68% | 1013.8 hPa | 0 mm | - | - | - |
| 1777392996 | 13.89° C | 68% | 1013.7 hPa | 0 mm | - | - | - |
| 1777392697 | 13.89° C | 69% | 1013.8 hPa | 0 mm | - | - | - |
| 1777392396 | 13.89° C | 69% | 1013.8 hPa | 0 mm | - | - | - |
| 1777392097 | 13.89° C | 69% | 1013.8 hPa | 0 mm | - | - | - |
* Rain latest hour (hover to see other rain measurements)
** Current wind speed in m/s (hover to see current wind gust speed)